Location: �bnet
(46.9957°N, 8.4908°E)
Time: 04:15:59
(UTC+00:00)

Cosmos 1862 Rocket - Pass Details

Date: 11 May 2021
Orbit: 605 x 633 km, 82.5° (Epoch: 23 June)

Event Time Altitude Azimuth Distance (km) Brightness Sun altitude
Exits shadow 22:10:39 63° 93° (E) 681 3.6 -22.9°
Drops below altitude 10° 22:14:54 10° 15° (NNE) 1,964 6.9 -23.1°
Sets 22:17:08 0° 13° (NNE) 2,872 8.0 -23.2°
